Regional Weather Roundup
Issued by NWS Burlington, VT

Home | Current Version | Previous Version | Text Only | Print | Product List | Glossary On
Versions: 1 2 3 4 5 6 7 8 9 10 11 12 13 14 15 16 17 18 19 20 21 22 23 24 25 26 27 28 29 30 31 32 33 34 35 36 37 38 39 40 41 42 43 44 45 46 47 48 49 50
000
ASUS41 KBTV 202310
RWRBTV
VERMONT REGIONAL WEATHER ROUNDUP
NATIONAL WEATHER SERVICE BURLINGTON VT
700 PM EDT FRI APR 20 2018

NOTE: "FAIR" INDICATES FEW OR NO CLOUDS BELOW 12,000 FEET WITH NO
SIGNIFICANT WEATHER AND/OR OBSTRUCTIONS TO VISIBILITY.

* THESE REPORTS ARE NOT UNDER NWS QUALITY CONTROL AND/OR DO NOT
  REPORT WEATHER SUCH AS PRECIPITATION AND FOG.

VTZ001>019-210000-
_____VERMONT_____


CITY           SKY/WX    TMP DP  RH WIND       PRES   REMARKS
BURLINGTON     MOCLDY    42  28  57 SW7       30.23R
MONTPELIER     CLOUDY    36  27  69 W10       30.22R WCI  28
MORRISVILLE    CLOUDY    38  27  64 NW8       30.21R
ST. JOHNSBURY*   N/A     39  28  64 MISG      30.16R
LYNDONVILLE*   CLOUDY    36  29  77 W8        30.17R WCI  29
MIDDLEBURY*    CLOUDY    39  26  59 CALM      30.24R
RUTLAND*       CLOUDY    38  27  64 W3        30.23R
SPRINGFIELD    CLOUDY    40  26  57 VRB3      30.23R
HIGHGATE*      CLOUDY    42  29  59 W3        30.21R
NEWPORT*       FLURRIES  36  30  80 W10G16    30.17R WCI  28
BENNINGTON     CLOUDY    40  23  50 NW14G23   30.24R

_____LAKE CHAMPLAIN_____


CITY           SKY/WX    TMP DP  RH WIND       PRES   REMARKS
BURTON ISLAND*   N/A     41  32  70 NW14G20     N/A
COLCHESTER RF*   N/A     43  30  61 NW20G26     N/A

$$

NYZ007-026>031-035-052-083-087-210000-
_____NORTHERN NEW YORK_____


CITY           SKY/WX    TMP DP  RH WIND       PRES   REMARKS
PLATTSBURGH    CLOUDY    45  26  47 NW13      30.22
SARANAC LAKE   CLOUDY    36  26  67 VRB7      30.21R WCI  30
MASSENA        FAIR      47  25  42 NW9G17    30.27R
OGDENSBURG*    MOCLDY    47  26  42 NW10      30.28S
POTSDAM*       CLOUDY    43  28  56 W6        30.26S
WATERTOWN      FAIR      39  31  72 W12       30.33S WCI  32
FT DRUM        FAIR      40  28  60 SW12G18   30.30S
ALBANY         MOCLDY    41  23  48 NW18      30.29R
GLENS FALLS    FAIR      41  25  53 NW13G22   30.27R

$$
NHZ002-005-011-210000-
_____NEW HAMPSHIRE_____


CITY           SKY/WX    TMP DP  RH WIND       PRES   REMARKS
LEBANON        FAIR      40  25  55 W6        30.20S
KEENE          CLOUDY    42  27  55 N16       30.21R
MT WASHINGTON  SNOWSHWR  16  16 100 NW52G62     N/A  VSB 0   WCI  -9
PLYMOUTH       DRIZZLE   39  29  68 W12G17    30.18R WCI  31
WHITEFIELD     CLOUDY    37  30  75 W5        30.15R

$$

_____REGIONAL QUEBEC LOCATIONS_____


CITY           SKY/WX    TMP DP  RH WIND       PRES   REMARKS
MONTREAL       MOCLDY    46  25  42 NW10      30.21R
QUEBEC CITY    PTCLDY    41  28  60 NW6G18    30.12R
SHERBROOKE     LGT RAIN  39  30  70 NW9       30.12R

_____REGIONAL ONTARIO LOCATIONS_____


CITY           SKY/WX    TMP DP  RH WIND       PRES   REMARKS
OTTAWA         PTCLDY    48  21  34 NW17G23   30.26R

______KEY______
VSB  - VISIBILITY IN MILES
WCI  - WIND CHILL INDEX
HX   - HEAT INDEX
$$
NNNN




USA.gov is the U.S. government's official web portal to all federal, state and local government web resources and services.